St. Johnsbury, VT

3:47 PM EDT on July 20, 2017 (GMT -0400)
St. Johnsbury

Weather History for K1V4 - March, 2014

Change the Weather History Date:

Saturday, March 8, 2014

  Actual Average Record
Temperature  
Mean Temperature 26 °F 27 °F  
Max Temperature 38 °F 38 °F 62 °F (1974)
Min Temperature 13 °F 15 °F -23 °F (1913)
Degree Days  
Heating Degree Days 39 38  
Month to date heating degree days 431 318  
Since 1 July heating degree days 6463 6042  
Cooling Degree Days 0 0  
Month to date cooling degree days 0 0  
Year to date cooling degree days 0 0  
Moisture  
Dew Point 14 °F    
Average Humidity 59    
Maximum Humidity 76    
Minimum Humidity 41    
Precipitation  
Precipitation 0.00 in 0.08 in 1.51 in (2008)
Month to date precipitation 0.02 0.60  
Year to date precipitation 5.15 5.28  
Sea Level Pressure  
Sea Level Pressure 29.87 in    
Wind  
Wind Speed - (North)    
Max Wind Speed -    
Max Gust Speed -    
T = Trace of Precipitation, MM = Missing Value Source: NWS Daily Summary

Daily Weather History Graph

Daily Weather History Graph

Search for Another Location

Airport or City:

Trip Planner

Search our weather history database for the weather conditions in past years. The results will help you decide how hot, cold, wet, or windy it might be!

Date:

Astronomy

Mar. 08, 2014 Rise Set
Actual Time 6:13 AM EST 5:45 PM EST
Civil Twilight 5:44 AM EST 6:14 PM EST
Nautical Twilight 5:10 AM EST 6:47 PM EST
Astronomical Twilight 4:36 AM EST 7:21 PM EST
Moon 10:37 AM EST (3/8) 12:54 AM EST (3/8)
Length of Visible Light 12h 30m
Length of Day
11h 32m
First Quarter, 51% of the Moon is Illuminated
Mar 8
First Quarter
Mar 16
Full
Mar 23
Last Quarter
Mar 30
New
Apr 7
First Quarter

Hourly Weather History & Observations

Time (EST) Temp. Dew Point Humidity Pressure Visibility Wind Dir Wind Speed Gust Speed Precip Events Conditions
12:54 AM 19.0 °F 9.0 °F 65% 29.93 in - North - - N/A   Unknown
1:54 AM 17.1 °F 9.0 °F 71% 29.91 in - North - - N/A   Unknown
2:54 AM 16.0 °F 8.1 °F 71% 29.88 in - North - - N/A   Unknown
3:54 AM 15.1 °F 7.0 °F 70% 29.86 in - North - - N/A   Unknown
4:54 AM 12.9 °F 7.0 °F 77% 29.86 in - North - - N/A   Unknown
5:54 AM 15.1 °F 8.1 °F 74% 29.86 in - North - - N/A   Unknown
6:54 AM 16.0 °F 9.0 °F 74% 29.85 in - North - - N/A   Unknown
7:54 AM 18.0 °F 10.9 °F 74% 29.85 in - North - - N/A   Unknown
8:54 AM 21.9 °F 9.0 °F 58% 29.84 in - North - - N/A   Unknown
9:54 AM 27.0 °F 10.9 °F 51% 29.83 in - North - - N/A   Unknown
10:54 AM 33.1 °F 12.9 °F 43% 29.82 in - North - - N/A   Unknown
11:54 AM 37.9 °F 18.0 °F 45% 29.81 in - North - - N/A   Unknown
12:54 PM 35.1 °F 26.1 °F 70% 29.81 in - North - - N/A   Unknown
1:54 PM 34.0 °F 25.0 °F 70% 29.81 in - North - - N/A   Unknown
2:54 PM 33.1 °F 24.1 °F 70% 29.83 in - North - - N/A   Unknown
3:54 PM 32.0 °F 23.0 °F 69% 29.84 in - North - - N/A   Unknown
4:54 PM 32.0 °F 19.0 °F 59% 29.86 in - North - - N/A   Unknown
5:54 PM 30.0 °F 17.1 °F 59% 29.87 in - North - - N/A   Unknown
6:54 PM 28.9 °F 15.1 °F 56% 29.89 in - North - - N/A   Unknown
7:54 PM 27.0 °F 10.0 °F 49% 29.91 in - North - - N/A   Unknown
8:54 PM 24.1 °F 12.0 °F 60% 29.92 in - North - - N/A   Unknown
9:54 PM 21.0 °F 12.9 °F 71% 29.92 in - North - - N/A   Unknown
10:54 PM 19.0 °F 10.9 °F 71% 29.91 in - North - - N/A   Unknown
11:54 PM 16.0 °F 10.0 °F 77% 29.91 in - North - - N/A   Unknown